Wind_Speed
11 10 10 11 11 10 10 9 9 9 9 9 8 9 10 10 10 10 10 10 10 9 9 9 9 9 9 9 8 8 8 8 9 9 9 9 8 8 9 9 9 10 11
11 11 11 11 12 11 11 10 10 9 9 10 10 10 10 11 11 11 11 11 10 10 10 10 10 9 9 9 9 9 9 9 8 9 9 8 8 8 8 9 10 10 11
11 12 12 12 12 12 11 11 11 11 10 11 11 11 12 11 11 11 11 11 11 11 10 11 11 11 10 11 11 10 10 9 9 9 9 9 9 9 9 10 10 10 11
12 13 13 13 13 12 12 11 11 12 12 11 11 11 11 11 11 11 11 12 12 11 11 11 11 11 12 12 12 11 11 11 10 10 10 10 10 10 10 10 11 11 12
14 13 14 14 14 13 12 12 12 12 12 12 11 11 11 12 12 12 12 12 12 12 12 11 11 11 12 12 12 11 12 12 11 11 11 11 11 11 11 11 12 12 12
16 15 14 15 14 14 14 14 13 13 12 12 12 12 13 13 13 13 14 13 13 13 13 12 12 12 12 12 12 11 11 12 12 12 11 12 12 12 12 12 12 13 13
18 17 16 15 15 16 16 15 15 14 14 14 14 14 14 14 14 14 14 14 14 14 14 13 13 13 13 12 12 12 12 12 12 12 12 12 13 13 13 13 13 13 14
18 19 17 16 16 16 17 17 16 16 15 15 15 15 15 16 16 16 16 15 15 15 15 15 15 14 14 13 13 13 13 13 13 14 14 14 14 15 15 15 15 15 15
19 19 18 18 18 18 18 18 17 17 17 17 16 16 16 16 17 17 17 16 16 15 15 16 16 16 16 15 15 15 15 15 15 15 15 16 16 17 17 17 16 17 17
19 19 20 20 20 20 19 18 18 18 18 18 17 17 16 16 17 17 17 17 16 16 16 16 16 17 17 18 17 17 17 18 17 17 17 17 17 18 19 19 18 18 19
21 21 21 21 20 20 19 19 19 19 19 19 18 18 17 17 17 17 17 17 17 17 17 17 17 17 18 18 19 19 19 19 19 19 19 19 19 19 19 20 19 20 19
20 21 20 21 21 21 20 19 20 20 20 20 19 19 19 18 18 17 17 18 18 18 18 18 18 18 18 19 20 21 21 20 20 20 21 21 21 20 20 21 21 21 21
21 21 22 21 21 21 21 21 21 21 21 21 20 21 20 19 19 19 19 19 19 19 19 19 19 19 18 19 20 20 21 21 21 21 22 22 22 22 22 22 22 22 23
22 23 22 22 22 22 22 21 21 22 21 21 21 21 21 20 21 20 20 20 20 20 20 20 20 20 20 20 20 20 20 21 21 21 22 22 22 23 23 23 23 22 23
22 23 22 22 23 23 23 23 23 23 22 22 22 22 21 21 22 22 22 21 22 22 21 21 22 21 21 20 20 20 20 21 21 21 22 22 22 22 22 22 22 22 22
23 24 23 23 23 24 23 24 24 24 23 23 23 23 23 23 23 23 23 23 23 23 22 22 23 23 22 22 21 21 21 21 21 22 22 23 22 23 23 23 23 23 23
25 24 24 24 24 23 24 24 24 24 24 24 24 24 24 24 24 24 24 24 24 24 24 23 22 22 22 22 21 21 21 21 21 22 22 23 23 23 24 24 24 24 25
25 25 25 24 24 25 25 25 25 25 25 25 25 25 25 25 25 25 25 25 25 24 24 23 23 22 22 22 22 22 22 21 21 21 22 23 23 24 24 25 25 25 26
26 26 25 24 25 24 24 25 25 25 25 25 25 26 26 26 26 26 26 26 26 25 25 24 24 23 23 22 22 22 23 23 23 23 24 25 25 25 26 27 27 27 27
27 28 27 26 26 26 26 27 26 26 26 25 25 26 26 26 26 26 26 26 26 26 25 25 24 24 23 23 23 23 24 24 24 24 25 26 26 26 26 27 27 27 27
28 29 28 28 27 26 27 27 26 26 27 27 27 26 26 26 26 26 26 26 25 25 25 25 25 24 24 24 24 25 25 25 25 25 26 27 26 25 25 26 26 26 26
29 30 30 28 27 27 27 27 27 26 26 26 26 25 25 25 25 25 25 25 25 25 25 25 25 24 24 25 25 25 26 26 26 26 26 26 25 25 24 24 24 23 23
30 29 29 28 28 27 27 26 26 27 27 26 26 26 25 24 24 25 25 26 25 25 25 25 25 25 25 25 25 25 24 25 25 25 25 25 24 24 24 24 23 23 23
30 30 29 28 28 27 27 27 27 27 27 27 27 27 26 25 25 26 26 26 26 26 26 26 26 25 25 25 24 24 24 24 25 24 24 24 23 24 24 24 24 24 23
29 29 29 29 29 28 27 27 27 27 27 26 26 26 25 25 25 25 25 26 27 27 26 26 26 25 25 25 25 25 25 26 25 24 24 24 23 23 24 24 24 24 24
29 28 29 29 29 28 28 27 27 27 26 26 26 25 25 25 26 25 26 26 26 27 27 26 26 25 25 25 25 25 25 25 24 24 23 23 22 23 23 23 23 24 24
Wind_Direction
294 296 298 297 296 294 293 293 297 298 294 294 295 296 298 301 304 306 306 305 305 303 298 297 293 296 288 283 282 281 281 280 278 277 278 276 269 268 263 259 254 250 251
290 293 293 295 296 292 289 291 290 293 291 290 288 289 291 297 301 301 300 302 304 303 298 294 291 290 289 283 282 285 282 280 279 279 280 271 264 267 265 262 261 258 257
290 291 290 292 293 290 289 288 288 288 291 293 290 289 287 292 295 298 298 298 299 300 300 296 291 286 284 284 279 278 282 278 281 283 277 273 268 270 267 265 262 262 262
292 292 291 291 292 292 290 287 287 287 286 288 288 291 293 294 295 295 296 296 295 295 296 296 293 288 285 284 281 277 277 277 279 279 276 270 267 268 269 268 263 261 262
284 287 289 289 288 288 288 286 285 287 287 286 288 289 290 292 291 290 291 293 293 292 292 291 291 292 288 283 278 278 274 276 277 278 277 270 266 267 268 269 266 262 261
283 283 284 283 282 283 283 282 283 286 287 286 287 288 288 289 288 287 287 289 287 287 289 289 289 289 289 285 283 282 278 277 276 275 275 272 269 267 266 268 270 269 267
280 280 277 280 281 281 282 281 283 283 283 284 284 285 285 285 285 285 286 286 284 283 284 286 286 286 285 284 284 285 283 281 280 276 273 272 272 270 267 268 270 271 272
271 276 276 275 276 280 281 281 280 278 279 281 282 283 284 283 282 281 283 284 283 282 281 282 283 283 282 280 279 280 280 280 279 277 275 274 272 272 271 268 269 269 270
269 270 269 273 274 277 279 278 277 276 277 278 280 283 284 283 281 280 281 281 281 281 280 281 280 280 280 278 277 278 279 279 280 279 277 276 274 273 273 271 271 269 271
269 270 270 270 272 274 275 275 272 273 274 275 277 280 281 283 282 279 279 280 279 280 281 281 280 279 278 277 277 276 276 277 279 280 279 278 277 275 272 271 272 273 274
268 271 272 270 269 272 271 271 273 275 273 273 274 275 277 280 282 279 278 278 278 279 281 281 281 280 279 278 278 278 278 278 278 279 277 277 277 277 275 274 274 273 274
264 266 270 269 270 271 269 270 271 273 273 272 272 272 273 276 278 278 276 276 277 279 280 280 281 280 279 278 278 279 278 278 278 277 276 276 276 276 276 275 275 273 271
267 268 272 271 268 268 270 270 269 270 271 272 270 272 274 274 274 274 274 274 274 276 278 279 280 280 279 280 280 281 280 278 278 277 276 275 275 276 276 276 276 272 269
268 268 273 271 267 266 269 268 268 269 271 271 271 272 273 273 273 273 272 273 274 275 277 278 278 280 280 280 280 281 281 279 278 278 276 275 276 276 276 276 275 274 271
271 271 271 272 269 266 267 267 268 268 270 271 272 272 272 273 274 274 274 275 275 275 276 277 278 278 280 280 279 279 280 279 278 278 278 277 277 277 277 276 276 274 273
272 273 270 268 267 265 264 265 266 267 268 270 272 272 272 272 272 273 274 275 276 276 277 278 278 277 278 278 279 280 280 280 279 278 278 278 278 278 276 276 276 274 273
271 272 269 266 265 263 264 264 264 265 267 269 270 270 270 271 270 271 272 273 274 276 277 278 280 279 278 276 276 278 279 281 282 279 279 279 278 277 277 276 274 273 273
270 271 270 267 264 264 264 265 264 265 268 269 270 269 269 270 269 270 271 271 273 275 276 276 278 278 276 276 275 276 277 279 281 281 281 280 280 279 278 276 275 274 274
267 268 270 269 267 267 266 267 267 266 268 269 270 269 269 269 269 270 270 271 272 272 273 274 275 276 275 275 276 275 276 278 279 280 280 280 281 280 279 277 275 275 275
267 267 269 269 269 268 266 267 266 265 266 268 270 270 270 270 270 269 269 271 270 270 270 271 273 274 274 274 274 274 276 277 277 278 279 281 281 281 280 279 278 276 275
267 269 270 271 269 268 269 268 268 267 268 269 270 270 270 268 267 267 268 269 268 269 269 270 272 273 274 274 274 275 276 277 277 278 280 281 281 281 281 281 280 277 274
270 270 270 269 269 269 269 268 268 268 268 269 270 269 269 267 265 265 266 267 266 268 269 270 271 273 275 276 277 278 278 278 279 280 280 280 280 279 279 280 279 276 274
270 270 268 267 268 268 268 269 269 267 269 270 271 270 269 268 267 266 266 266 265 266 268 269 271 274 274 277 278 278 277 278 279 281 280 279 279 278 277 277 277 277 277
269 269 269 268 268 267 266 267 268 268 268 269 271 272 270 269 269 268 266 264 264 265 268 268 270 272 274 276 276 277 278 279 279 280 279 278 278 277 275 275 274 275 276
270 270 268 266 265 266 265 266 268 269 267 267 270 271 271 270 270 268 268 267 266 266 267 269 270 272 274 275 276 277 278 280 281 280 279 278 278 278 277 277 274 273 274
266 267 266 265 265 265 265 265 267 268 268 268 269 270 270 271 270 268 269 268 268 268 269 269 271 272 273 275 277 278 278 280 281 281 280 279 279 278 279 277 275 274 274
Height
5881 5880 5880 5879 5879 5878 5878 5877 5877 5877 5876 5875 5874 5874 5873 5873 5872 5871 5870 5870 5869 5868 5867 5867 5866 5866 5865 5865 5865 5864 5864 5863 5863 5863 5862 5862 5862 5862 5862 5862 5862 5862 5862
5877 5877 5877 5876 5876 5876 5875 5875 5875 5874 5873 5873 5872 5872 5871 5870 5869 5868 5868 5867 5866 5865 5865 5864 5864 5863 5863 5862 5862 5861 5861 5861 5861 5860 5860 5860 5860 5860 5860 5859 5859 5859 5860
5874 5874 5874 5874 5873 5873 5873 5872 5872 5871 5871 5870 5869 5869 5868 5867 5866 5866 5865 5864 5864 5863 5862 5862 5861 5861 5860 5860 5859 5859 5858 5858 5858 5857 5857 5857 5857 5857 5857 5857 5857 5857 5857
5871 5871 5871 5870 5870 5870 5869 5869 5869 5868 5868 5867 5867 5866 5865 5864 5864 5863 5862 5862 5861 5860 5859 5859 5858 5858 5857 5857 5856 5856 5856 5855 5855 5855 5854 5855 5854 5854 5854 5854 5854 5854 5854
5868 5868 5867 5867 5866 5866 5866 5865 5865 5865 5865 5864 5864 5863 5862 5861 5861 5860 5859 5859 5858 5857 5856 5855 5855 5854 5853 5853 5853 5853 5852 5852 5852 5851 5851 5851 5851 5851 5851 5851 5851 5851 5851
5863 5863 5863 5863 5862 5862 5862 5862 5862 5862 5861 5861 5860 5860 5859 5858 5857 5857 5856 5855 5855 5854 5853 5852 5851 5851 5850 5849 5849 5849 5849 5849 5848 5848 5848 5847 5847 5847 5847 5847 5847 5847 5847
5859 5858 5858 5858 5858 5859 5858 5858 5858 5858 5857 5857 5856 5856 5855 5854 5854 5853 5852 5852 5851 5850 5849 5849 5848 5847 5846 5846 5846 5845 5845 5845 5845 5844 5844 5844 5844 5844 5843 5843 5843 5843 5843
5853 5853 5854 5854 5854 5854 5854 5854 5853 5853 5853 5853 5852 5852 5851 5850 5849 5849 5848 5848 5847 5846 5846 5845 5844 5844 5843 5842 5842 5842 5842 5841 5841 5840 5840 5840 5840 5839 5839 5839 5839 5839 5839
5847 5848 5849 5849 5849 5849 5849 5849 5849 5848 5848 5848 5847 5847 5846 5845 5845 5844 5844 5843 5843 5842 5841 5841 5840 5840 5839 5838 5838 5838 5838 5837 5837 5836 5836 5835 5835 5835 5834 5834 5834 5834 5834
5842 5842 5843 5843 5844 5844 5844 5844 5844 5843 5843 5842 5842 5842 5841 5840 5840 5839 5839 5839 5838 5838 5837 5836 5836 5835 5834 5834 5834 5833 5833 5833 5832 5832 5831 5831 5830 5830 5829 5829 5829 5828 5828
5835 5836 5836 5837 5837 5838 5838 5838 5838 5838 5838 5837 5837 5836 5836 5835 5835 5834 5834 5834 5833 5833 5832 5831 5831 5830 5829 5829 5828 5828 5828 5827 5827 5826 5826 5826 5825 5824 5824 5823 5823 5823 5822
5829 5830 5830 5830 5831 5831 5832 5832 5832 5832 5832 5831 5831 5831 5830 5830 5829 5829 5829 5828 5828 5828 5827 5826 5825 5825 5824 5823 5823 5822 5822 5822 5821 5821 5820 5820 5819 5819 5818 5817 5817 5816 5816
5823 5823 5824 5824 5825 5825 5825 5825 5826 5826 5826 5825 5825 5825 5824 5824 5823 5823 5823 5823 5822 5821 5821 5821 5820 5819 5818 5818 5817 5816 5816 5815 5815 5814 5814 5813 5812 5812 5812 5811 5810 5809 5809
5817 5817 5818 5818 5818 5818 5818 5818 5819 5819 5819 5819 5819 5818 5818 5818 5817 5817 5817 5817 5816 5816 5815 5815 5814 5813 5812 5812 5811 5810 5809 5809 5809 5808 5807 5807 5806 5805 5805 5804 5804 5803 5802
5811 5811 5811 5811 5811 5811 5811 5812 5812 5813 5813 5812 5812 5812 5811 5811 5811 5811 5810 5810 5810 5810 5809 5809 5808 5807 5806 5806 5805 5804 5804 5803 5802 5801 5801 5800 5799 5798 5798 5797 5797 5796 5796
5805 5805 5804 5804 5805 5805 5805 5805 5805 5806 5806 5805 5805 5805 5804 5804 5804 5804 5803 5803 5803 5803 5803 5802 5801 5800 5800 5799 5799 5798 5797 5797 5796 5795 5794 5793 5792 5791 5790 5790 5790 5789 5789
5798 5798 5798 5798 5798 5797 5798 5798 5798 5798 5798 5798 5797 5797 5796 5796 5796 5796 5796 5796 5796 5796 5796 5795 5795 5794 5793 5793 5793 5792 5791 5790 5789 5788 5787 5786 5785 5784 5783 5783 5782 5782 5782
5790 5790 5790 5789 5790 5790 5790 5790 5790 5790 5790 5790 5790 5789 5789 5789 5789 5789 5789 5789 5789 5789 5789 5788 5788 5787 5787 5786 5785 5785 5785 5784 5783 5782 5781 5780 5779 5777 5776 5776 5775 5775 5774
5783 5783 5783 5783 5783 5782 5782 5782 5782 5783 5783 5783 5782 5782 5781 5781 5781 5781 5781 5782 5782 5781 5781 5781 5781 5781 5780 5779 5778 5778 5778 5777 5776 5775 5774 5773 5772 5770 5769 5768 5767 5767 5766
5775 5776 5776 5776 5776 5775 5775 5774 5774 5775 5775 5775 5775 5774 5773 5773 5773 5773 5773 5773 5773 5773 5773 5773 5774 5773 5773 5773 5772 5771 5771 5770 5769 5768 5767 5765 5764 5763 5761 5760 5759 5759 5758
5768 5768 5768 5768 5767 5767 5767 5767 5767 5767 5767 5767 5766 5766 5766 5765 5765 5765 5765 5765 5765 5765 5766 5766 5766 5766 5766 5766 5765 5764 5763 5762 5761 5760 5759 5758 5756 5755 5753 5752 5751 5750 5749
5760 5760 5760 5760 5760 5759 5759 5760 5760 5760 5759 5759 5759 5758 5757 5757 5757 5758 5758 5758 5758 5758 5759 5759 5759 5759 5759 5758 5757 5756 5755 5754 5753 5752 5751 5749 5748 5747 5746 5744 5743 5743 5742
5751 5751 5751 5751 5751 5751 5751 5752 5752 5752 5752 5751 5751 5750 5750 5749 5750 5750 5751 5751 5751 5751 5752 5752 5752 5751 5751 5751 5749 5748 5747 5746 5745 5744 5743 5742 5740 5739 5738 5737 5736 5736 5735
5743 5743 5743 5743 5743 5743 5743 5744 5744 5744 5744 5744 5744 5743 5743 5743 5743 5743 5743 5743 5743 5744 5744 5744 5744 5744 5744 5743 5741 5740 5739 5738 5737 5736 5735 5734 5733 5732 5731 5730 5729 5728 5728
5734 5734 5735 5735 5735 5735 5735 5735 5735 5736 5736 5736 5736 5736 5736 5736 5736 5735 5735 5735 5736 5736 5736 5736 5736 5736 5736 5735 5734 5732 5732 5730 5729 5728 5727 5726 5725 5724 5723 5722 5722 5721 5721
5725 5726 5726 5726 5727 5727 5727 5727 5727 5728 5728 5728 5728 5728 5728 5728 5728 5728 5728 5727 5727 5728 5728 5728 5728 5728 5727 5727 5726 5725 5724 5722 5722 5721 5720 5719 5717 5717 5716 5715 5714 5713 5713